TimeCDT,TemperatureF,Dew PointF,Humidity,Sea Level PressureIn,VisibilityMPH,Wind Direction,Wind SpeedMPH,Gust SpeedMPH,PrecipitationIn,Events,Conditions,WindDirDegrees,DateUTC
12:52 AM,72.0,66.0,81,29.75,10.0,South,16.1,24.2,N/A,,Clear,170,2012-10-22 05:52:00
1:52 AM,73.0,66.0,79,29.75,10.0,South,17.3,28.8,N/A,,Clear,180,2012-10-22 06:52:00
2:52 AM,73.0,66.0,79,29.75,10.0,South,19.6,26.5,N/A,,Clear,180,2012-10-22 07:52:00
3:52 AM,72.0,66.0,81,29.73,10.0,South,20.7,29.9,N/A,,Clear,180,2012-10-22 08:52:00
4:52 AM,71.6,66.2,83,29.76,10.0,South,19.6,26.5,N/A,,Clear,180,2012-10-22 09:52:00
5:52 AM,71.1,66.0,84,29.75,10.0,South,20.7,-,N/A,,Clear,190,2012-10-22 10:52:00
6:52 AM,69.8,66.2,88,29.79,10.0,South,18.4,26.5,N/A,,Clear,180,2012-10-22 11:52:00
7:52 AM,69.8,66.2,88,29.79,10.0,South,19.6,25.3,N/A,,Clear,180,2012-10-22 12:52:00
8:40 AM,71.6,66.2,83,29.81,10.0,South,19.6,27.6,N/A,,Mostly Cloudy,190,2012-10-22 13:40:00
8:52 AM,72.0,66.9,84,29.79,10.0,South,17.3,25.3,N/A,,Mostly Cloudy,190,2012-10-22 13:52:00
9:52 AM,73.0,66.9,81,29.80,10.0,South,26.5,33.4,N/A,,Mostly Cloudy,190,2012-10-22 14:52:00
10:12 AM,75.2,66.2,73,29.83,10.0,South,20.7,26.5,N/A,,Scattered Clouds,180,2012-10-22 15:12:00
10:34 AM,75.2,66.2,73,29.83,10.0,South,16.1,27.6,N/A,,Mostly Cloudy,190,2012-10-22 15:34:00
10:52 AM,75.2,66.2,73,29.83,10.0,South,23.0,27.6,N/A,,Mostly Cloudy,190,2012-10-22 15:52:00
11:52 AM,75.2,66.2,73,29.85,10.0,South,20.7,31.1,N/A,,Overcast,190,2012-10-22 16:52:00
12:52 PM,75.0,66.9,76,29.82,10.0,SSW,17.3,24.2,N/A,,Overcast,200,2012-10-22 17:52:00
1:27 PM,73.4,66.2,78,29.85,10.0,South,13.8,-,N/A,,Overcast,190,2012-10-22 18:27:00
1:52 PM,75.9,66.9,74,29.81,10.0,South,12.7,-,N/A,,Overcast,180,2012-10-22 18:52:00
2:52 PM,80.6,66.2,61,29.82,10.0,SSW,19.6,25.3,N/A,,Scattered Clouds,200,2012-10-22 19:52:00
3:52 PM,79.0,64.9,62,29.80,10.0,SSW,21.9,26.5,N/A,,Scattered Clouds,200,2012-10-22 20:52:00
4:52 PM,77.0,64.9,66,29.81,10.0,SSW,16.1,23.0,N/A,,Clear,200,2012-10-22 21:52:00
5:52 PM,73.4,66.2,78,29.84,10.0,South,12.7,-,N/A,,Mostly Cloudy,180,2012-10-22 22:52:00
6:52 PM,71.1,64.9,81,29.81,10.0,SSE,6.9,-,0.00,,Mostly Cloudy,160,2012-10-22 23:52:00
8:52 PM,66.9,64.0,90,29.83,10.0,SSE,6.9,-,N/A,,Partly Cloudy,160,2012-10-23 01:52:00
9:52 PM,66.9,63.0,87,29.85,10.0,South,6.9,-,N/A,,Clear,170,2012-10-23 02:52:00
11:52 PM,66.9,63.0,87,29.84,10.0,South,6.9,-,N/A,,Scattered Clouds,180,2012-10-23 04:52:00